| time (UTC) | temp C | wind direction | speed KPH | gust KPH | rain 1hr cm | rain 24hr cm | rain mn cm | humidity % | barometer mb |
| 20260510071737 | 10 | 44 | 0.0 | 0.0 | 0.00 | 0.03 | 0.03 | 99 | 1010.3 |
| 20260510071234 | 10 | 37 | 0.0 | 0.0 | 0.00 | 0.03 | 0.03 | 99 | 1010.3 |
| 20260510070732 | 10 | 18 | 0.0 | 0.0 | 0.00 | 0.03 | 0.03 | 99 | 1010.3 |
| 20260510070229 | 10 | 1 | 1.6 | 1.6 | 0.00 | 0.03 | 0.03 | 99 | 1010.5 |
| 20260510065724 | 10 | 359 | 1.6 | 1.6 | 0.00 | 0.03 | 0.03 | 99 | 1010.5 |
| 20260510065220 | 10 | 11 | 0.0 | 1.6 | 0.00 | 0.03 | 0.03 | 99 | 1010.4 |
| 20260510064717 | 10 | 61 | 0.0 | 0.0 | 0.00 | 0.03 | 0.03 | 99 | 1010.5 |
| 20260510064215 | 10 | 41 | 0.0 | 0.0 | 0.00 | 0.03 | 0.03 | 99 | 1010.6 |
| 20260510063711 | 10 | 58 | 0.0 | 0.0 | 0.00 | 0.03 | 0.03 | 99 | 1010.7 |
| 20260510063207 | 10 | 58 | 0.0 | 0.0 | 0.00 | 0.03 | 0.03 | 99 | 1010.8 |
| 20260510062704 | 9 | 68 | 0.0 | 0.0 | 0.00 | 0.03 | 0.03 | 99 | 1010.8 |
| 20260510062200 | 9 | 31 | 0.0 | 0.0 | 0.00 | 0.03 | 0.03 | 99 | 1011.0 |
| 20260510061655 | 9 | 80 | 0.0 | 1.6 | 0.00 | 0.03 | 0.03 | 99 | 1011.0 |
| 20260510061153 | 9 | 93 | 0.0 | 0.0 | 0.00 | 0.03 | 0.03 | 99 | 1010.6 |
| 20260510060649 | 9 | 325 | 3.2 | 3.2 | 0.00 | 0.03 | 0.03 | 99 | 1010.5 |
| 20260510060146 | 9 | 40 | 0.0 | 0.0 | 0.00 | 0.03 | 0.03 | 99 | 1010.2 |
| 20260510055642 | 9 | 39 | 0.0 | 0.0 | 0.00 | 0.03 | 0.03 | 99 | 1010.1 |
| 20260510055140 | 9 | 358 | 0.0 | 1.6 | 0.00 | 0.03 | 0.03 | 98 | 1010.4 |
| 20260510054635 | 9 | 33 | 0.0 | 0.0 | 0.00 | 0.03 | 0.03 | 99 | 1010.2 |
| 20260510054132 | 9 | 39 | 0.0 | 0.0 | 0.00 | 0.03 | 0.03 | 99 | 1010.1 |
| 20260510053630 | 8 | 46 | 0.0 | 0.0 | 0.00 | 0.03 | 0.03 | 98 | 1010.2 |
| 20260510053127 | 8 | 54 | 0.0 | 0.0 | 0.00 | 0.03 | 0.03 | 98 | 1010.4 |
| 20260510052624 | 8 | 65 | 0.0 | 0.0 | 0.00 | 0.03 | 0.03 | 98 | 1010.3 |
| 20260510052120 | 8 | 76 | 0.0 | 0.0 | 0.00 | 0.03 | 0.03 | 98 | 1010.4 |
| 20260510051615 | 8 | 52 | 0.0 | 0.0 | 0.00 | 0.03 | 0.03 | 98 | 1010.5 |
| 20260510051112 | 8 | 40 | 0.0 | 0.0 | 0.00 | 0.03 | 0.03 | 98 | 1010.5 |
| 20260510050610 | 8 | 52 | 0.0 | 0.0 | 0.00 | 0.03 | 0.03 | 98 | 1010.5 |
| 20260510050106 | 8 | 87 | 0.0 | 0.0 | 0.00 | 0.03 | 0.03 | 98 | 1010.5 |
| 20260510045604 | 8 | 76 | 0.0 | 0.0 | 0.00 | 0.03 | 0.03 | 98 | 1010.3 |
| 20260510045100 | 8 | 67 | 0.0 | 0.0 | 0.00 | 0.03 | 0.03 | 98 | 1010.2 |
| 20260510044556 | 8 | 58 | 0.0 | 0.0 | 0.00 | 0.03 | 0.03 | 98 | 1010.0 |
| 20260510044054 | 8 | 57 | 0.0 | 0.0 | 0.00 | 0.03 | 0.03 | 98 | 1009.6 |
| 20260510043549 | 8 | 57 | 0.0 | 0.0 | 0.00 | 0.03 | 0.03 | 98 | 1009.7 |
| 20260510043045 | 8 | 57 | 0.0 | 0.0 | 0.00 | 0.03 | 0.03 | 98 | 1009.9 |
| 20260510042539 | 8 | 59 | 0.0 | 0.0 | 0.00 | 0.03 | 0.03 | 98 | 1010.0 |
| 20260510042034 | 8 | 49 | 0.0 | 0.0 | 0.13 | 0.03 | 0.03 | 98 | 1009.9 |
| 20260510041531 | 8 | 49 | 0.0 | 0.0 | 0.13 | 0.03 | 0.03 | 98 | 1009.8 |
| 20260510041028 | 7 | 49 | 0.0 | 0.0 | 0.00 | 0.00 | 0.00 | 98 | 1009.8 |
| 20260510040520 | 7 | 59 | 0.0 | 0.0 | 0.00 | 0.00 | 0.00 | 98 | 1009.8 |
| 20260510040015 | 7 | 65 | 0.0 | 0.0 | 0.00 | 0.97 | 0.97 | 98 | 1009.7 |
| 20260510035512 | 7 | 72 | 0.0 | 0.0 | 0.00 | 0.97 | 0.97 | 98 | 1009.5 |
| 20260510035011 | 8 | 66 | 0.0 | 0.0 | 0.00 | 0.97 | 0.97 | 98 | 1009.5 |
| 20260510034511 | 8 | 67 | 0.0 | 0.0 | 0.00 | 0.97 | 0.97 | 98 | 1009.5 |
| 20260510034006 | 8 | 68 | 0.0 | 0.0 | 0.00 | 0.97 | 0.97 | 98 | 1009.5 |
| 20260510033503 | 8 | 52 | 0.0 | 0.0 | 0.00 | 0.97 | 0.97 | 98 | 1009.7 |
| 20260510033000 | 8 | 52 | 0.0 | 0.0 | 0.00 | 0.97 | 0.97 | 98 | 1009.7 |
| 20260510032456 | 8 | 52 | 0.0 | 0.0 | 0.00 | 0.97 | 0.97 | 98 | 1009.6 |
| 20260510031951 | 8 | 45 | 0.0 | 0.0 | 0.00 | 0.97 | 0.97 | 98 | 1009.5 |
| 20260510031447 | 8 | 58 | 0.0 | 0.0 | 0.00 | 0.97 | 0.97 | 98 | 1009.6 |
| 20260510030943 | 8 | 60 | 0.0 | 0.0 | 0.00 | 0.97 | 0.97 | 98 | 1009.4 |
| 20260510030438 | 8 | 77 | 0.0 | 0.0 | 0.00 | 0.97 | 0.97 | 98 | 1009.4 |
| 20260510025936 | 8 | 58 | 0.0 | 0.0 | 0.00 | 0.97 | 0.97 | 98 | 1009.8 |
| 20260510025433 | 8 | 56 | 0.0 | 0.0 | 0.00 | 0.97 | 0.97 | 98 | 1009.6 |
| 20260510024931 | 8 | 58 | 0.0 | 0.0 | 0.00 | 0.97 | 0.97 | 98 | 1009.2 |
| 20260510024427 | 8 | 56 | 0.0 | 0.0 | 0.00 | 0.97 | 0.97 | 98 | 1009.5 |
| 20260510023923 | 8 | 70 | 0.0 | 0.0 | 0.00 | 0.97 | 0.97 | 98 | 1009.5 |
| 20260510023419 | 8 | 70 | 0.0 | 0.0 | 0.00 | 0.97 | 0.97 | 98 | 1009.7 |
| 20260510022917 | 8 | 69 | 0.0 | 0.0 | 0.00 | 0.97 | 0.97 | 98 | 1009.7 |
| 20260510022415 | 8 | 69 | 0.0 | 0.0 | 0.00 | 0.97 | 0.97 | 98 | 1009.6 |
| 20260510021915 | 9 | 82 | 0.0 | 1.6 | 0.00 | 0.97 | 0.97 | 98 | 1009.5 |
| 20260510021413 | 9 | 40 | 0.0 | 0.0 | 0.00 | 0.97 | 0.97 | 98 | 1009.7 |
| 20260510020909 | 9 | 21 | 0.0 | 0.0 | 0.00 | 0.97 | 0.97 | 98 | 1009.7 |
| 20260510020404 | 9 | 37 | 0.0 | 0.0 | 0.00 | 0.97 | 0.97 | 98 | 1009.6 |
| 20260510015900 | 9 | 40 | 0.0 | 0.0 | 0.00 | 0.97 | 0.97 | 97 | 1009.5 |
| 20260510015356 | 9 | 64 | 0.0 | 0.0 | 0.00 | 0.97 | 0.97 | 97 | 1009.3 |
| 20260510014851 | 9 | 64 | 0.0 | 0.0 | 0.00 | 0.97 | 0.97 | 97 | 1009.6 |
| 20260510014349 | 10 | 52 | 0.0 | 0.0 | 0.00 | 0.97 | 0.97 | 97 | 1009.2 |
| 20260510013845 | 10 | 63 | 0.0 | 0.0 | 0.00 | 0.97 | 0.97 | 97 | 1009.4 |
| 20260510013341 | 10 | 2 | 0.0 | 1.6 | 0.00 | 0.97 | 0.97 | 97 | 1009.5 |
| 20260510012836 | 10 | 38 | 0.0 | 0.0 | 0.00 | 0.97 | 0.97 | 97 | 1009.5 |
| 20260510012335 | 10 | 61 | 0.0 | 0.0 | 0.00 | 0.97 | 0.97 | 97 | 1009.2 |
| 20260510011831 | 10 | 62 | 0.0 | 0.0 | 0.00 | 0.97 | 0.97 | 97 | 1009.3 |
| 20260510011326 | 10 | 58 | 0.0 | 0.0 | 0.00 | 0.97 | 0.97 | 97 | 1009.0 |
| 20260510010823 | 10 | 58 | 0.0 | 0.0 | 0.00 | 0.97 | 0.97 | 97 | 1009.2 |
| 20260510010320 | 10 | 58 | 0.0 | 0.0 | 0.00 | 0.97 | 0.97 | 97 | 1009.4 |
| 20260510005817 | 10 | 37 | 0.0 | 0.0 | 0.00 | 0.97 | 0.97 | 97 | 1009.2 |
| 20260510005313 | 10 | 40 | 0.0 | 0.0 | 0.00 | 0.97 | 0.97 | 97 | 1009.3 |
| 20260510004811 | 10 | 50 | 0.0 | 0.0 | 0.00 | 0.97 | 0.97 | 97 | 1009.0 |
| 20260510004308 | 10 | 40 | 0.0 | 0.0 | 0.00 | 0.97 | 0.97 | 96 | 1008.9 |
| 20260510003806 | 10 | 358 | 0.0 | 0.0 | 0.00 | 0.97 | 0.97 | 96 | 1009.2 |
| 20260510003303 | 10 | 358 | 0.0 | 0.0 | 0.00 | 0.97 | 0.97 | 96 | 1009.0 |
| 20260510002801 | 10 | 342 | 0.0 | 0.0 | 0.00 | 0.97 | 0.97 | 96 | 1008.9 |
| 20260510002259 | 11 | 3 | 1.6 | 1.6 | 0.00 | 0.97 | 0.97 | 95 | 1008.8 |
| 20260510001755 | 11 | 359 | 1.6 | 1.6 | 0.00 | 0.97 | 0.97 | 95 | 1008.7 |
| 20260510001254 | 11 | 354 | 0.0 | 0.0 | 0.00 | 0.97 | 0.97 | 94 | 1008.6 |
| 20260510000749 | 11 | 63 | 0.0 | 0.0 | 0.00 | 0.97 | 0.97 | 94 | 1008.5 |
| 20260510000248 | 11 | 63 | 0.0 | 0.0 | 0.00 | 0.97 | 0.97 | 94 | 1008.5 |
| 20260509235744 | 11 | 51 | 0.0 | 0.0 | 0.00 | 0.97 | 0.97 | 93 | 1008.6 |
| 20260509235240 | 11 | 39 | 0.0 | 0.0 | 0.00 | 0.97 | 0.97 | 93 | 1008.6 |
| 20260509234736 | 11 | 39 | 0.0 | 0.0 | 0.00 | 0.97 | 0.97 | 93 | 1008.2 |
| 20260509234233 | 11 | 23 | 0.0 | 1.6 | 0.00 | 0.97 | 0.97 | 93 | 1008.1 |
| 20260509233731 | 11 | 9 | 1.6 | 1.6 | 0.00 | 0.97 | 0.97 | 93 | 1007.8 |
| 20260509233229 | 11 | 15 | 1.6 | 1.6 | 0.00 | 0.97 | 0.97 | 93 | 1007.8 |
| 20260509232724 | 12 | 18 | 1.6 | 1.6 | 0.00 | 0.97 | 0.97 | 92 | 1007.8 |
| 20260509232222 | 12 | 28 | 0.0 | 1.6 | 0.00 | 0.97 | 0.97 | 92 | 1007.6 |
| 20260509231718 | 12 | 354 | 3.2 | 3.2 | 0.00 | 0.97 | 0.97 | 92 | 1007.8 |
| 20260509231215 | 12 | 44 | 0.0 | 0.0 | 0.00 | 0.97 | 0.97 | 91 | 1007.7 |
| 20260509230713 | 13 | 36 | 1.6 | 1.6 | 0.00 | 0.97 | 0.97 | 91 | 1007.8 |
| 20260509230209 | 13 | 45 | 0.0 | 0.0 | 0.00 | 0.97 | 0.97 | 91 | 1007.7 |
| 20260509225705 | 13 | 23 | 0.0 | 0.0 | 0.00 | 0.97 | 0.97 | 91 | 1007.9 |
| 20260509225201 | 13 | 41 | 0.0 | 0.0 | 0.00 | 0.97 | 0.97 | 91 | 1007.9 |
| 20260509224656 | 13 | 358 | 1.6 | 1.6 | 0.00 | 0.97 | 0.97 | 91 | 1008.0 |
| 20260509224154 | 13 | 20 | 1.6 | 1.6 | 0.00 | 0.97 | 0.97 | 90 | 1008.0 |
| 20260509223650 | 13 | 37 | 0.0 | 0.0 | 0.00 | 0.97 | 0.97 | 91 | 1008.1 |
| 20260509223142 | 13 | 23 | 1.6 | 1.6 | 0.00 | 0.97 | 0.97 | 91 | 1007.9 |
| 20260509222639 | 13 | 35 | 1.6 | 1.6 | 0.00 | 0.97 | 0.97 | 91 | 1007.9 |
| 20260509222134 | 12 | 85 | 1.6 | 1.6 | 0.00 | 0.97 | 0.97 | 92 | 1008.1 |
| 20260509221630 | 13 | 53 | 0.0 | 0.0 | 0.00 | 0.97 | 0.97 | 92 | 1008.2 |
| 20260509221126 | 12 | 49 | 0.0 | 0.0 | 0.00 | 0.97 | 0.97 | 92 | 1008.4 |
| 20260509220622 | 12 | 49 | 0.0 | 0.0 | 0.00 | 0.97 | 0.97 | 92 | 1008.2 |
| 20260509220119 | 12 | 57 | 0.0 | 0.0 | 0.00 | 0.97 | 0.97 | 92 | 1008.4 |
| 20260509215615 | 12 | 57 | 0.0 | 0.0 | 0.00 | 0.97 | 0.97 | 92 | 1008.3 |
| 20260509215112 | 12 | 57 | 0.0 | 0.0 | 0.00 | 0.97 | 0.97 | 92 | 1008.4 |
| 20260509214608 | 12 | 9 | 1.6 | 1.6 | 0.00 | 0.97 | 0.97 | 92 | 1008.3 |
| 20260509214105 | 12 | 354 | 3.2 | 3.2 | 0.00 | 0.97 | 0.97 | 91 | 1008.6 |
| 20260509213601 | 12 | 23 | 1.6 | 1.6 | 0.00 | 0.97 | 0.97 | 91 | 1008.5 |
| 20260509213058 | 12 | 39 | 1.6 | 1.6 | 0.00 | 0.97 | 0.97 | 91 | 1008.4 |
| 20260509212555 | 12 | 6 | 1.6 | 3.2 | 0.00 | 0.97 | 0.97 | 92 | 1008.5 |
| 20260509212053 | 12 | 344 | 1.6 | 1.6 | 0.00 | 0.97 | 0.97 | 93 | 1008.5 |
| 20260509211548 | 12 | 44 | 0.0 | 1.6 | 0.00 | 0.97 | 0.97 | 93 | 1008.4 |
| 20260509211045 | 11 | 70 | 1.6 | 1.6 | 0.00 | 0.97 | 0.97 | 93 | 1008.3 |
| 20260509210542 | 11 | 69 | 0.0 | 0.0 | 0.00 | 0.97 | 0.97 | 93 | 1008.3 |
| 20260509210037 | 11 | 68 | 0.0 | 0.0 | 0.00 | 0.97 | 0.97 | 93 | 1008.6 |
| 20260509205532 | 11 | 85 | 0.0 | 0.0 | 0.00 | 0.97 | 0.97 | 93 | 1008.5 |
| 20260509205027 | 12 | 53 | 0.0 | 1.6 | 0.00 | 0.97 | 0.97 | 93 | 1008.8 |
| 20260509204524 | 12 | 82 | 1.6 | 1.6 | 0.18 | 0.97 | 0.97 | 92 | 1009.0 |
| 20260509204015 | 12 | 43 | 0.0 | 0.0 | 0.30 | 0.97 | 0.97 | 92 | 1008.9 |
| 20260509203511 | 12 | 49 | 0.0 | 0.0 | 0.13 | 0.94 | 0.94 | 92 | 1008.9 |
| 20260509203009 | 12 | 49 | 0.0 | 0.0 | 0.00 | 0.91 | 0.91 | 92 | 1009.0 |
| 20260509202509 | 12 | 48 | 0.0 | 0.0 | 0.18 | 0.91 | 0.91 | 92 | 1009.0 |
| 20260509202005 | 12 | 29 | 1.6 | 1.6 | 0.18 | 0.91 | 0.91 | 92 | 1009.0 |
| 20260509201500 | 12 | 90 | 1.6 | 1.6 | 0.00 | 0.89 | 0.89 | 92 | 1008.9 |
| 20260509200958 | 12 | 44 | 1.6 | 1.6 | 0.00 | 0.89 | 0.89 | 92 | 1009.0 |
| 20260509200452 | 11 | 49 | 0.0 | 0.0 | 0.00 | 0.89 | 0.89 | 92 | 1008.8 |
| 20260509195949 | 12 | 347 | 3.2 | 3.2 | 0.00 | 0.89 | 0.89 | 92 | 1009.1 |
| 20260509195445 | 12 | 21 | 1.6 | 1.6 | 0.00 | 0.89 | 0.89 | 93 | 1009.4 |
| 20260509194944 | 12 | 42 | 0.0 | 0.0 | 0.00 | 0.89 | 0.89 | 93 | 1009.4 |
| 20260509194440 | 11 | 52 | 0.0 | 0.0 | 0.13 | 0.89 | 0.89 | 93 | 1009.5 |
| 20260509193937 | 11 | 55 | 0.0 | 0.0 | 0.13 | 0.89 | 0.89 | 93 | 1009.5 |
| 20260509193437 | 11 | 37 | 0.0 | 0.0 | 0.18 | 0.86 | 0.86 | 92 | 1009.4 |
| 20260509192933 | 11 | 44 | 0.0 | 0.0 | 0.18 | 0.86 | 0.86 | 92 | 1009.6 |
| 20260509192430 | 11 | 39 | 1.6 | 1.6 | 0.00 | 0.84 | 0.84 | 92 | 1009.9 |
| 20260509191925 | 11 | 315 | 1.6 | 3.2 | 0.18 | 0.84 | 0.84 | 92 | 1010.0 |
| 20260509191420 | 11 | 59 | 0.0 | 1.6 | 0.18 | 0.84 | 0.84 | 92 | 1009.8 |
| 20260509190916 | 11 | 30 | 0.0 | 0.0 | 0.13 | 0.81 | 0.81 | 92 | 1009.9 |
| 20260509190414 | 11 | 348 | 4.8 | 8.0 | 0.43 | 0.81 | 0.81 | 92 | 1009.8 |
| 20260509185912 | 11 | 339 | 1.6 | 3.2 | 0.48 | 0.79 | 0.79 | 92 | 1010.0 |
| 20260509185409 | 11 | 348 | 3.2 | 3.2 | 0.43 | 0.76 | 0.76 | 92 | 1010.1 |
| 20260509184905 | 11 | 332 | 4.8 | 4.8 | 0.30 | 0.71 | 0.71 | 92 | 1010.0 |
| 20260509184402 | 11 | 34 | 1.6 | 3.2 | 0.30 | 0.69 | 0.69 | 91 | 1010.1 |
| 20260509183859 | 11 | 331 | 3.2 | 4.8 | 0.13 | 0.66 | 0.66 | 91 | 1010.1 |
| 20260509183354 | 11 | 295 | 8.0 | 9.7 | 0.18 | 0.64 | 0.64 | 90 | 1009.8 |
| 20260509182850 | 11 | 235 | 4.8 | 4.8 | 0.48 | 0.64 | 0.64 | 91 | 1009.9 |
| 20260509182347 | 12 | 2 | 4.8 | 4.8 | 0.30 | 0.61 | 0.61 | 91 | 1009.9 |
| 20260509181844 | 12 | 32 | 0.0 | 1.6 | 0.13 | 0.56 | 0.56 | 91 | 1009.8 |
| 20260509181341 | 12 | 13 | 3.2 | 3.2 | 0.18 | 0.53 | 0.53 | 91 | 1010.0 |
| 20260509180839 | 12 | 30 | 1.6 | 3.2 | 0.18 | 0.51 | 0.51 | 91 | 1009.9 |
| 20260509180335 | 12 | 10 | 1.6 | 3.2 | 0.30 | 0.51 | 0.51 | 91 | 1009.9 |
| 20260509175832 | 12 | 25 | 1.6 | 3.2 | 0.13 | 0.48 | 0.48 | 91 | 1010.0 |
| 20260509175328 | 12 | 30 | 1.6 | 1.6 | 0.18 | 0.46 | 0.46 | 90 | 1010.0 |
| 20260509174824 | 12 | 328 | 4.8 | 4.8 | 0.18 | 0.46 | 0.46 | 91 | 1009.8 |
| 20260509174320 | 12 | 47 | 3.2 | 3.2 | 0.00 | 0.43 | 0.43 | 91 | 1009.8 |
| 20260509173816 | 12 | 50 | 1.6 | 1.6 | 0.00 | 0.43 | 0.43 | 90 | 1010.0 |
| 20260509173311 | 12 | 17 | 1.6 | 1.6 | 0.00 | 0.43 | 0.43 | 91 | 1009.9 |
| 20260509172808 | 11 | 16 | 1.6 | 1.6 | 0.00 | 0.43 | 0.43 | 91 | 1009.9 |
| 20260509172306 | 11 | 330 | 4.8 | 4.8 | 0.00 | 0.43 | 0.43 | 91 | 1009.8 |
| 20260509171801 | 11 | 7 | 1.6 | 1.6 | 0.13 | 0.43 | 0.43 | 91 | 1010.0 |
| 20260509171256 | 11 | 36 | 4.8 | 4.8 | 0.13 | 0.43 | 0.43 | 90 | 1010.0 |
| 20260509170753 | 11 | 338 | 6.4 | 8.0 | 0.18 | 0.41 | 0.41 | 90 | 1009.9 |
| 20260509170249 | 11 | 301 | 4.8 | 4.8 | 0.18 | 0.41 | 0.41 | 89 | 1010.0 |
| 20260509165748 | 11 | 320 | 1.6 | 1.6 | 0.13 | 0.38 | 0.38 | 90 | 1010.0 |
| 20260509165243 | 11 | 317 | 4.8 | 4.8 | 0.13 | 0.38 | 0.38 | 89 | 1010.0 |
| 20260509164739 | 11 | 315 | 4.8 | 4.8 | 0.00 | 0.36 | 0.36 | 89 | 1010.1 |
| 20260509164235 | 12 | 90 | 1.6 | 1.6 | 0.00 | 0.36 | 0.36 | 90 | 1009.9 |
| 20260509163733 | 12 | 33 | 0.0 | 0.0 | 0.00 | 0.36 | 0.36 | 90 | 1010.1 |
| 20260509163229 | 12 | 87 | 1.6 | 1.6 | 0.00 | 0.36 | 0.36 | 91 | 1010.0 |
| 20260509162727 | 11 | 56 | 0.0 | 0.0 | 0.00 | 0.36 | 0.36 | 90 | 1010.2 |
| 20260509162222 | 11 | 48 | 0.0 | 0.0 | 0.00 | 0.36 | 0.36 | 91 | 1010.0 |
| 20260509161718 | 11 | 56 | 0.0 | 0.0 | 0.00 | 0.36 | 0.36 | 92 | 1010.0 |
| 20260509161214 | 11 | 33 | 0.0 | 1.6 | 0.00 | 0.36 | 0.36 | 92 | 1009.9 |
| 20260509160709 | 11 | 49 | 0.0 | 0.0 | 0.00 | 0.36 | 0.36 | 92 | 1009.9 |
| 20260509160206 | 11 | 35 | 0.0 | 1.6 | 0.00 | 0.36 | 0.36 | 92 | 1010.0 |
| 20260509155701 | 11 | 50 | 3.2 | 3.2 | 0.00 | 0.36 | 0.36 | 92 | 1010.2 |
| 20260509155158 | 11 | 51 | 0.0 | 0.0 | 0.00 | 0.36 | 0.36 | 93 | 1010.3 |
| 20260509154654 | 10 | 101 | 1.6 | 3.2 | 0.00 | 0.36 | 0.36 | 93 | 1010.3 |
| 20260509154151 | 10 | 91 | 1.6 | 3.2 | 0.00 | 0.36 | 0.36 | 93 | 1010.5 |
| 20260509153648 | 10 | 107 | 1.6 | 1.6 | 0.00 | 0.36 | 0.36 | 93 | 1010.8 |
| 20260509153145 | 10 | 88 | 0.0 | 1.6 | 0.18 | 0.36 | 0.36 | 93 | 1010.8 |
| 20260509152640 | 10 | 86 | 1.6 | 1.6 | 0.18 | 0.36 | 0.36 | 93 | 1010.8 |
| 20260509152138 | 10 | 70 | 1.6 | 1.6 | 0.00 | 0.33 | 0.33 | 93 | 1011.0 |
| 20260509151634 | 10 | 84 | 1.6 | 1.6 | 0.00 | 0.33 | 0.33 | 93 | 1011.0 |
| 20260509151132 | 10 | 83 | 1.6 | 3.2 | 0.00 | 0.33 | 0.33 | 93 | 1010.7 |
| 20260509150630 | 10 | 81 | 1.6 | 1.6 | 0.00 | 0.33 | 0.33 | 93 | 1010.7 |
| 20260509150128 | 10 | 104 | 1.6 | 3.2 | 0.00 | 0.33 | 0.33 | 93 | 1010.8 |
| 20260509145624 | 10 | 87 | 1.6 | 1.6 | 0.13 | 0.33 | 0.33 | 93 | 1011.1 |
| 20260509145119 | 10 | 106 | 1.6 | 3.2 | 0.13 | 0.33 | 0.33 | 93 | 1010.7 |
| 20260509144616 | 10 | 51 | 0.0 | 1.6 | 0.00 | 0.30 | 0.30 | 93 | 1010.7 |
| 20260509144113 | 10 | 52 | 3.2 | 3.2 | 0.00 | 0.30 | 0.30 | 93 | 1010.6 |
| 20260509143610 | 10 | 86 | 1.6 | 1.6 | 0.00 | 0.30 | 0.30 | 93 | 1010.6 |
| 20260509143107 | 10 | 69 | 1.6 | 1.6 | 0.00 | 0.30 | 0.30 | 93 | 1010.8 |
| 20260509142602 | 10 | 65 | 0.0 | 0.0 | 0.00 | 0.30 | 0.30 | 93 | 1010.8 |
| 20260509142059 | 10 | 61 | 3.2 | 3.2 | 0.00 | 0.30 | 0.30 | 93 | 1010.8 |
| 20260509141555 | 10 | 97 | 1.6 | 1.6 | 0.00 | 0.30 | 0.30 | 92 | 1010.4 |
| 20260509141051 | 10 | 46 | 0.0 | 0.0 | 0.00 | 0.30 | 0.30 | 92 | 1010.7 |
| 20260509140549 | 10 | 68 | 1.6 | 1.6 | 0.00 | 0.30 | 0.30 | 92 | 1010.4 |
| 20260509140047 | 10 | 8 | 1.6 | 3.2 | 0.18 | 0.30 | 0.30 | 93 | 1010.4 |
| 20260509135543 | 10 | 48 | 1.6 | 3.2 | 0.18 | 0.30 | 0.30 | 93 | 1010.6 |
| 20260509135041 | 10 | 30 | 1.6 | 1.6 | 0.00 | 0.28 | 0.28 | 94 | 1010.6 |
| 20260509134538 | 10 | 108 | 1.6 | 1.6 | 0.00 | 0.28 | 0.28 | 95 | 1010.7 |
| 20260509134036 | 10 | 33 | 1.6 | 3.2 | 0.00 | 0.28 | 0.28 | 96 | 1010.8 |
| 20260509133532 | 10 | 97 | 3.2 | 3.2 | 0.00 | 0.28 | 0.28 | 96 | 1010.7 |
| 20260509133030 | 10 | 72 | 0.0 | 1.6 | 0.00 | 0.28 | 0.28 | 96 | 1011.0 |
| 20260509132528 | 10 | 113 | 1.6 | 1.6 | 0.00 | 0.28 | 0.28 | 96 | 1011.1 |
| 20260509132026 | 9 | 65 | 0.0 | 0.0 | 0.00 | 0.28 | 0.28 | 96 | 1011.1 |
| 20260509131522 | 9 | 97 | 1.6 | 1.6 | 0.13 | 0.28 | 0.28 | 96 | 1011.1 |
| 20260509131019 | 9 | 95 | 3.2 | 3.2 | 0.13 | 0.28 | 0.28 | 96 | 1011.1 |
| 20260509130514 | 9 | 99 | 6.4 | 8.0 | 0.00 | 0.25 | 0.25 | 96 | 1011.1 |
| 20260509130012 | 9 | 62 | 0.0 | 0.0 | 0.00 | 0.25 | 0.25 | 96 | 1011.3 |
| 20260509125508 | 9 | 69 | 0.0 | 0.0 | 0.00 | 0.25 | 0.25 | 96 | 1011.2 |
| 20260509125004 | 9 | 84 | 0.0 | 0.0 | 0.00 | 0.25 | 0.25 | 96 | 1011.3 |
| 20260509124501 | 9 | 33 | 0.0 | 0.0 | 0.18 | 0.25 | 0.25 | 97 | 1011.2 |
| 20260509123958 | 8 | 31 | 0.0 | 0.0 | 0.18 | 0.25 | 0.25 | 97 | 1011.1 |
| 20260509123456 | 9 | 348 | 1.6 | 1.6 | 0.00 | 0.23 | 0.23 | 97 | 1011.3 |
| 20260509122951 | 9 | 64 | 0.0 | 0.0 | 0.00 | 0.23 | 0.23 | 97 | 1011.2 |
| 20260509122449 | 8 | 109 | 1.6 | 1.6 | 0.00 | 0.23 | 0.23 | 97 | 1011.0 |
| 20260509121945 | 8 | 79 | 1.6 | 1.6 | 0.00 | 0.23 | 0.23 | 97 | 1011.0 |
| 20260509121442 | 8 | 102 | 0.0 | 0.0 | 0.00 | 0.23 | 0.23 | 97 | 1011.1 |
| 20260509120940 | 8 | 77 | 0.0 | 1.6 | 0.00 | 0.23 | 0.23 | 97 | 1010.7 |
| 20260509120438 | 8 | 58 | 0.0 | 0.0 | 0.00 | 0.23 | 0.23 | 97 | 1011.0 |
| 20260509115936 | 8 | 58 | 0.0 | 0.0 | 0.00 | 0.23 | 0.23 | 97 | 1010.6 |
| 20260509115432 | 8 | 92 | 0.0 | 1.6 | 0.00 | 0.23 | 0.23 | 97 | 1010.8 |
| 20260509114930 | 8 | 120 | 1.6 | 1.6 | 0.13 | 0.23 | 0.23 | 97 | 1010.8 |
| 20260509114429 | 8 | 70 | 0.0 | 0.0 | 0.13 | 0.23 | 0.23 | 97 | 1010.8 |
| 20260509113928 | 8 | 115 | 1.6 | 1.6 | 0.00 | 0.20 | 0.20 | 97 | 1010.7 |
| 20260509113425 | 8 | 112 | 3.2 | 3.2 | 0.00 | 0.20 | 0.20 | 97 | 1010.6 |
| 20260509112921 | 8 | 100 | 0.0 | 0.0 | 0.00 | 0.20 | 0.20 | 97 | 1011.0 |
| 20260509112419 | 8 | 126 | 3.2 | 3.2 | 0.00 | 0.20 | 0.20 | 97 | 1010.8 |
| 20260509111915 | 8 | 120 | 1.6 | 3.2 | 0.00 | 0.20 | 0.20 | 97 | 1011.1 |
| 20260509111412 | 8 | 105 | 0.0 | 0.0 | 0.00 | 0.20 | 0.20 | 97 | 1011.1 |
| 20260509110910 | 8 | 122 | 1.6 | 1.6 | 0.00 | 0.20 | 0.20 | 97 | 1011.2 |
| 20260509110406 | 8 | 63 | 0.0 | 0.0 | 0.00 | 0.20 | 0.20 | 97 | 1011.2 |
| 20260509105904 | 8 | 55 | 0.0 | 0.0 | 0.00 | 0.20 | 0.20 | 97 | 1011.3 |
| 20260509105402 | 7 | 55 | 0.0 | 0.0 | 0.18 | 0.20 | 0.20 | 97 | 1011.1 |
| 20260509104859 | 7 | 94 | 0.0 | 0.0 | 0.18 | 0.20 | 0.20 | 97 | 1011.3 |
| 20260509104355 | 7 | 78 | 0.0 | 0.0 | 0.00 | 0.18 | 0.18 | 97 | 1011.2 |
| 20260509103853 | 7 | 89 | 0.0 | 0.0 | 0.00 | 0.18 | 0.18 | 97 | 1011.3 |
| 20260509103350 | 7 | 63 | 0.0 | 0.0 | 0.00 | 0.18 | 0.18 | 97 | 1011.2 |
| 20260509102849 | 7 | 74 | 0.0 | 0.0 | 0.00 | 0.18 | 0.18 | 97 | 1010.8 |
| 20260509102346 | 7 | 63 | 0.0 | 0.0 | 0.00 | 0.18 | 0.18 | 97 | 1011.0 |
| 20260509101841 | 7 | 57 | 0.0 | 0.0 | 0.00 | 0.18 | 0.18 | 97 | 1010.7 |
| 20260509101338 | 7 | 78 | 0.0 | 0.0 | 0.00 | 0.18 | 0.18 | 97 | 1010.8 |
| 20260509100836 | 7 | 78 | 0.0 | 0.0 | 0.00 | 0.18 | 0.18 | 97 | 1011.1 |
| 20260509100333 | 7 | 52 | 0.0 | 0.0 | 0.00 | 0.18 | 0.18 | 97 | 1011.0 |
| 20260509095829 | 7 | 64 | 0.0 | 0.0 | 0.00 | 0.18 | 0.18 | 97 | 1011.2 |
| 20260509095327 | 7 | 79 | 0.0 | 0.0 | 0.00 | 0.18 | 0.18 | 96 | 1011.0 |
| 20260509094824 | 7 | 78 | 0.0 | 0.0 | 0.00 | 0.18 | 0.18 | 96 | 1010.8 |
| 20260509094320 | 7 | 89 | 0.0 | 0.0 | 0.00 | 0.18 | 0.18 | 96 | 1011.3 |
| 20260509093818 | 7 | 92 | 0.0 | 0.0 | 0.00 | 0.18 | 0.18 | 96 | 1011.4 |
| 20260509093315 | 7 | 56 | 0.0 | 0.0 | 0.00 | 0.18 | 0.18 | 96 | 1011.3 |
| 20260509092814 | 7 | 56 | 0.0 | 0.0 | 0.00 | 0.18 | 0.18 | 96 | 1011.3 |
| 20260509092311 | 7 | 56 | 0.0 | 0.0 | 0.00 | 0.18 | 0.18 | 96 | 1011.5 |
| 20260509091809 | 7 | 78 | 0.0 | 0.0 | 0.00 | 0.18 | 0.18 | 96 | 1011.4 |
| 20260509091305 | 7 | 78 | 0.0 | 0.0 | 0.00 | 0.18 | 0.18 | 96 | 1011.2 |
| 20260509090803 | 7 | 59 | 0.0 | 0.0 | 0.00 | 0.18 | 0.18 | 96 | 1011.6 |
| 20260509090300 | 7 | 42 | 0.0 | 0.0 | 0.00 | 0.18 | 0.18 | 96 | 1011.6 |
| 20260509085757 | 7 | 78 | 0.0 | 0.0 | 0.00 | 0.18 | 0.18 | 96 | 1011.6 |
| 20260509085254 | 7 | 81 | 0.0 | 0.0 | 0.00 | 0.18 | 0.18 | 96 | 1011.4 |
| 20260509084751 | 7 | 47 | 0.0 | 0.0 | 0.00 | 0.18 | 0.18 | 96 | 1011.5 |
| 20260509084247 | 7 | 49 | 0.0 | 0.0 | 0.00 | 0.18 | 0.18 | 95 | 1011.4 |
| 20260509083746 | 7 | 87 | 0.0 | 0.0 | 0.00 | 0.18 | 0.18 | 95 | 1011.4 |
| 20260509083242 | 7 | 89 | 0.0 | 0.0 | 0.00 | 0.18 | 0.18 | 95 | 1011.6 |
| 20260509082738 | 7 | 101 | 0.0 | 0.0 | 0.00 | 0.18 | 0.18 | 95 | 1011.4 |
| 20260509082235 | 7 | 29 | 0.0 | 0.0 | 0.00 | 0.18 | 0.18 | 95 | 1011.5 |
| 20260509081732 | 7 | 68 | 0.0 | 0.0 | 0.00 | 0.18 | 0.18 | 94 | 1011.5 |
| 20260509081230 | 7 | 68 | 0.0 | 0.0 | 0.00 | 0.18 | 0.18 | 94 | 1011.8 |
| 20260509080728 | 7 | 69 | 0.0 | 0.0 | 0.00 | 0.18 | 0.18 | 94 | 1011.8 |
| 20260509080225 | 7 | 68 | 0.0 | 0.0 | 0.00 | 0.18 | 0.18 | 94 | 1011.7 |
| 20260509075723 | 7 | 69 | 0.0 | 0.0 | 0.00 | 0.18 | 0.18 | 93 | 1011.8 |
| 20260509075221 | 7 | 106 | 0.0 | 0.0 | 0.00 | 0.18 | 0.18 | 93 | 1011.6 |
| 20260509074717 | 7 | 18 | 0.0 | 0.0 | 0.00 | 0.18 | 0.18 | 93 | 1011.7 |
| 20260509074215 | 7 | 80 | 0.0 | 0.0 | 0.00 | 0.18 | 0.18 | 92 | 1011.4 |
| 20260509073711 | 7 | 25 | 0.0 | 0.0 | 0.00 | 0.18 | 0.18 | 92 | 1011.2 |
| 20260509073207 | 7 | 35 | 0.0 | 0.0 | 0.00 | 0.18 | 0.18 | 91 | 1011.3 |
| 20260509072704 | 7 | 79 | 0.0 | 0.0 | 0.00 | 0.18 | 0.18 | 91 | 1011.3 |
| 20260509072201 | 7 | 79 | 0.0 | 0.0 | 0.00 | 0.18 | 0.18 | 91 | 1011.1 |